RH
41 39 38 36 35 35 37 38 37 40 42 43 46 51 57 60 59 54 51 48 48 48 44 43 51 56 55 54 51 47 48 44 36 35 37 35 31 27 27 28 28 29 30 31 32 33 34 34 34 34 34 32 30 28 28 27 27 29 30 31 32 33 34 36 38 36 33 36 39 38 36 35 35 34 33 31 33 35 35 35 35 35 37 39 38
43 43 43 42 40 39 41 39 37 38 40 43 49 56 61 60 56 55 55 50 50 53 49 45 50 53 49 49 48 45 47 48 43 41 41 39 34 30 30 31 31 32 33 34 35 35 36 37 39 38 36 33 31 29 29 28 30 31 33 34 34 34 35 35 35 35 34 35 37 39 39 38 35 34 34 34 35 36 36 36 37 36 36 37 37
43 44 43 43 43 43 43 42 41 43 48 53 58 58 57 57 55 55 56 52 52 55 52 48 51 49 46 48 49 47 47 49 50 48 43 41 37 33 33 34 35 35 35 36 36 36 37 39 39 38 35 34 35 35 34 34 36 36 36 37 37 37 37 36 35 36 37 36 37 40 42 42 39 36 36 37 38 38 37 37 38 37 36 36 35
43 43 42 44 45 44 46 48 48 52 57 60 62 61 61 63 62 58 58 58 58 57 53 52 55 52 47 48 51 50 48 48 52 52 46 42 40 36 35 36 38 38 38 38 37 37 38 38 35 34 34 36 39 39 39 39 38 37 37 38 39 39 39 38 38 38 39 39 39 40 42 43 42 40 38 39 40 39 38 38 39 39 39 39 38
42 42 42 45 46 48 55 58 55 54 55 55 59 64 67 68 67 62 60 61 60 58 55 53 57 58 54 51 53 53 50 49 53 54 49 45 42 39 38 39 40 40 38 38 37 38 38 35 32 33 35 37 39 40 40 39 38 37 37 37 37 40 41 40 39 39 39 40 40 41 42 42 43 44 44 44 44 41 40 40 40 40 41 41 42
40 40 43 45 48 56 65 65 60 57 55 55 58 64 67 70 69 65 60 58 56 57 58 55 55 61 61 57 57 57 53 51 53 53 50 47 45 42 41 43 43 42 39 38 38 39 39 36 34 34 35 37 39 39 39 38 37 35 35 35 36 38 41 42 42 40 38 38 39 40 41 41 42 46 49 50 48 44 42 41 41 42 44 44 45
39 39 42 46 52 59 59 57 57 57 54 53 55 59 63 66 66 63 60 57 53 54 60 58 55 60 64 62 60 60 57 55 55 54 52 51 47 45 46 47 47 45 43 42 42 41 40 37 36 35 36 38 39 38 37 36 34 32 31 32 33 35 39 42 44 41 38 38 38 37 38 39 40 43 47 49 48 47 47 47 46 49 52 51 50
37 38 43 48 52 53 49 49 54 56 54 54 57 59 59 60 59 57 55 53 51 52 59 63 61 62 66 66 63 62 62 60 58 57 55 53 50 47 48 50 50 48 47 47 47 45 43 41 39 37 38 39 38 36 34 32 31 30 28 28 29 30 33 39 42 41 39 39 39 38 38 38 39 42 45 48 50 52 56 56 53 53 55 53 51
39 42 48 52 52 52 52 53 58 63 62 61 64 66 65 64 63 59 53 52 52 53 59 66 67 67 70 69 64 64 66 63 60 58 57 56 54 50 50 53 54 53 51 51 51 49 48 46 43 41 41 40 37 34 32 31 31 29 26 26 28 28 30 36 41 42 42 42 42 42 41 41 43 45 47 52 55 56 58 58 55 53 51 48 46
45 48 52 54 54 54 56 57 58 64 69 66 65 69 73 73 73 69 62 57 55 57 63 69 71 70 73 72 66 65 67 65 62 61 60 62 60 56 55 57 58 56 55 55 56 53 50 48 47 47 46 44 39 35 33 32 31 30 28 26 28 30 31 36 42 44 45 46 47 46 46 47 48 50 53 58 60 59 59 59 55 51 47 43 42
47 50 51 51 51 52 54 54 54 59 69 72 70 72 76 76 76 75 67 60 58 61 66 70 73 73 75 73 69 68 70 68 65 65 65 68 67 61 60 61 60 60 60 60 59 55 49 48 51 52 52 49 43 37 34 33 31 31 29 27 29 31 33 38 42 46 49 51 51 51 51 51 52 56 59 59 59 57 57 56 53 52 50 45 42
46 49 51 51 51 51 50 51 53 56 68 78 76 73 69 63 64 68 66 61 60 62 63 68 75 77 78 75 72 71 72 70 70 70 69 71 70 65 64 65 64 64 64 64 61 56 52 54 58 61 61 55 46 39 35 33 32 32 30 29 30 33 35 38 42 47 51 55 55 56 57 55 56 59 58 54 52 51 50 51 52 52 50 48 47
46 49 52 53 53 53 51 52 55 57 64 70 70 66 63 57 56 62 66 63 62 65 65 68 75 80 80 78 76 75 73 73 75 74 72 71 70 68 69 69 68 68 68 68 68 63 56 55 59 62 60 52 44 39 35 33 34 33 32 32 34 35 36 38 41 44 49 54 58 61 61 58 56 55 51 49 50 49 47 48 50 50 51 53 54
45 47 50 52 52 53 55 56 57 59 60 62 62 59 60 61 59 61 66 67 68 71 70 71 80 83 78 76 78 77 75 75 77 77 76 73 69 69 73 75 74 74 73 73 73 66 54 50 53 53 49 45 41 38 35 35 35 35 34 35 37 38 38 37 39 44 49 56 61 63 60 55 53 51 49 49 49 48 48 48 50 52 53 53 52
41 43 46 48 49 51 53 54 56 58 57 58 58 56 56 60 60 61 65 67 70 75 76 77 84 82 72 72 76 75 74 76 78 79 79 75 72 72 76 77 77 78 79 78 74 63 52 51 53 50 46 44 40 36 35 36 37 37 37 38 39 40 39 39 41 47 55 61 62 59 55 53 52 51 51 50 48 48 50 50 51 53 51 48 50
39 42 45 47 48 49 50 49 51 52 52 52 54 53 53 58 60 60 61 63 69 77 77 77 80 77 71 72 74 72 74 79 81 81 80 79 78 77 77 78 79 81 80 77 70 59 51 51 52 50 47 43 38 37 38 38 39 39 39 40 41 41 41 42 46 51 57 59 56 52 52 53 54 53 53 53 51 52 52 50 50 50 48 48 52
41 43 46 47 49 50 50 49 49 49 49 49 50 50 50 53 54 56 61 69 76 77 73 72 76 76 74 74 73 72 76 81 82 81 81 83 83 81 80 80 80 80 76 69 63 57 50 48 49 48 45 42 39 39 40 40 41 40 40 41 41 41 43 48 54 55 54 52 49 50 52 53 52 51 51 51 51 50 48 46 46 47 46 48 51
41 44 47 48 50 51 52 52 51 50 47 46 47 50 51 52 55 63 74 82 81 74 70 71 74 74 73 73 74 75 80 84 85 84 85 86 84 83 82 81 81 81 75 64 58 54 50 48 47 46 45 42 41 41 41 42 42 41 41 40 40 42 47 53 56 55 52 48 47 49 52 51 50 49 48 47 45 44 41 39 40 41 41 43 48
42 44 47 49 50 52 54 54 53 50 47 46 49 54 56 56 60 68 76 76 71 67 67 69 71 72 71 70 72 76 81 84 85 86 88 87 84 84 84 83 85 85 74 61 55 53 50 49 48 47 46 44 42 41 41 42 42 41 40 39 40 45 50 52 52 51 49 46 46 49 52 52 51 50 48 45 43 40 38 36 35 35 36 37 42
44 46 47 49 51 53 54 54 53 51 48 49 53 55 55 57 61 64 65 63 61 62 66 68 68 68 67 67 71 79 86 87 87 89 89 88 87 87 87 87 88 81 68 58 57 55 52 50 49 48 47 45 43 40 40 41 42 41 38 39 43 48 49 49 50 49 46 43 45 49 51 52 52 51 48 44 41 38 35 34 34 35 36 36 39
46 47 49 51 52 53 53 52 53 51 49 50 54 55 55 57 60 60 59 60 61 62 64 67 68 68 71 74 78 82 85 86 88 90 90 91 91 90 88 86 82 72 62 58 58 55 51 49 48 48 47 45 42 40 40 42 42 40 39 41 45 47 48 49 50 48 45 45 46 49 51 52 53 50 46 41 38 35 32 33 35 36 36 36 38
47 48 50 52 53 53 51 52 53 52 50 51 52 52 53 55 58 59 59 60 61 63 66 68 71 74 79 83 85 85 85 87 90 90 90 92 91 86 81 76 69 63 59 57 54 51 48 47 46 46 46 44 41 41 42 43 42 40 41 43 45 47 50 52 51 49 47 47 48 49 51 53 52 47 42 38 35 32 31 32 34 35 34 34 37
49 50 51 52 51 49 50 52 54 53 51 52 52 51 50 52 55 58 58 58 60 67 71 71 72 75 80 84 87 87 88 90 91 90 90 90 86 78 70 65 60 57 54 51 49 48 47 46 46 46 45 42 41 43 44 43 41 41 43 46 49 51 53 54 53 51 49 49 49 49 49 50 49 44 37 33 30 29 29 30 32 32 32 31 34
52 53 53 51 49 49 52 54 54 54 55 54 51 49 49 52 57 60 59 59 63 68 71 71 70 71 76 83 86 86 87 90 90 90 89 85 75 65 59 55 54 51 48 47 49 50 49 48 46 44 43 42 43 45 45 42 41 42 46 50 53 55 56 56 55 55 54 53 52 51 49 47 44 38 31 28 27 27 28 29 30 29 28 27 34
54 55 56 54 52 53 55 54 54 56 56 52 48 47 50 55 59 60 58 58 63 68 71 72 72 70 73 81 86 86 86 87 86 85 82 73 60 52 48 49 49 49 49 51 51 51 49 48 46 44 44 44 45 45 44 41 42 46 50 53 55 56 58 58 59 59 59 57 55 52 48 44 40 34 29 26 26 26 26 26 25 24 23 26 37
56 59 61 60 57 56 55 54 54 54 51 47 46 48 53 57 59 56 54 54 59 67 71 71 71 69 72 79 84 85 83 81 78 74 66 56 48 46 47 49 49 49 50 50 50 50 50 49 48 46 45 46 46 45 43 42 46 51 54 54 56 58 60 60 60 61 60 59 57 53 48 43 39 34 30 27 25 24 22 21 21 21 22 29 43
58 63 66 63 58 55 52 50 50 50 46 43 45 49 53 55 53 51 51 53 57 63 68 69 69 70 73 79 82 80 77 74 69 62 52 46 46 47 49 48 46 46 47 47 49 52 53 52 49 47 46 47 46 44 44 48 53 56 56 56 58 60 61 60 60 59 58 56 55 54 51 45 41 36 30 25 21 19 18 19 20 20 24 35 51
58 59 59 55 51 49 48 46 46 47 44 43 48 54 56 54 52 51 52 53 56 62 66 68 68 68 69 71 71 69 68 66 61 53 48 48 50 51 50 48 47 48 49 51 53 54 53 51 49 47 47 48 48 48 50 54 58 59 58 59 62 63 61 59 56 55 53 51 52 55 54 47 40 36 29 22 18 17 18 19 21 22 29 43 56
51 48 47 45 44 44 44 44 46 48 46 46 52 59 59 57 56 54 53 54 59 64 65 65 65 64 60 57 56 58 61 60 56 51 50 51 52 51 51 51 53 55 56 56 54 53 51 51 50 50 52 54 57 58 59 59 60 60 61 63 64 62 58 55 52 50 50 49 50 52 50 43 36 32 28 22 19 18 18 21 24 28 37 49 58
41 41 41 41 40 41 42 45 49 52 50 49 54 59 60 58 57 55 54 58 63 63 60 60 61 58 52 48 49 54 58 58 54 51 51 50 50 51 52 55 58 58 56 53 52 53 53 52 53 55 58 60 62 64 64 62 63 63 64 64 63 59 56 53 50 49 48 46 44 41 38 35 31 28 26 24 21 19 19 24 29 34 42 52 58
38 39 39 37 37 40 44 47 50 53 53 53 55 55 56 57 56 55 56 58 59 57 56 57 56 51 47 46 48 51 53 53 51 50 50 50 51 53 55 58 59 54 49 49 52 56 56 55 55 57 60 63 65 65 65 65 66 65 64 62 60 59 56 53 51 48 44 40 35 30 27 26 25 25 26 24 23 23 23 26 33 38 45 54 59
38 36 36 36 39 44 47 48 49 50 53 55 53 49 49 52 53 53 55 55 54 53 54 54 52 48 46 47 48 50 52 53 53 54 53 53 54 55 56 58 57 51 48 51 56 58 58 57 57 60 64 66 67 66 67 67 66 64 63 62 60 58 55 52 49 45 39 33 29 25 23 23 23 25 25 25 25 27 27 29 34 40 46 55 60
37 36 37 40 44 47 48 47 47 47 50 52 51 47 47 49 50 52 54 53 50 48 49 49 47 47 49 51 53 55 58 58 57 57 55 54 52 52 54 55 53 49 48 51 54 58 60 60 62 66 69 69 68 67 67 66 64 62 62 62 60 57 54 51 46 39 34 30 27 25 23 23 24 26 26 25 26 29 29 31 35 41 47 55 59
39 40 43 46 49 50 49 48 48 47 47 48 47 44 44 44 45 48 49 46 42 42 44 46 47 50 54 57 59 62 64 62 57 54 52 51 50 52 54 53 49 48 50 52 56 62 64 64 67 70 70 67 66 66 65 64 63 62 61 59 57 55 51 46 39 34 30 29 27 25 23 23 24 26 25 24 24 27 30 32 36 42 48 53 57
44 45 48 51 53 54 53 52 51 49 46 44 43 41 40 41 42 42 41 40 40 42 45 48 52 57 60 62 64 63 61 57 54 52 51 52 54 56 56 53 50 52 55 56 59 64 66 66 68 69 67 65 65 65 65 65 64 61 59 57 55 51 45 38 33 30 28 28 27 26 24 23 23 24 24 23 22 25 29 33 36 41 46 51 55
48 50 52 55 57 57 56 55 54 52 49 45 43 41 40 40 40 40 40 42 43 45 48 52 55 57 59 60 59 56 53 53 56 58 58 59 61 60 57 54 54 57 59 59 61 64 65 65 66 66 65 65 66 66 66 65 62 59 58 55 50 44 36 31 28 26 25 25 25 24 23 23 22 22 22 21 21 23 27 31 35 38 43 49 55
49 52 56 59 59 57 55 53 53 53 50 46 43 42 44 45 45 46 47 48 48 49 51 52 53 53 53 54 53 53 56 60 65 67 68 67 64 59 56 56 57 58 61 64 66 67 67 66 65 65 65 67 67 66 65 62 60 59 56 49 41 34 29 27 25 23 22 22 22 23 24 24 23 22 21 20 19 20 24 28 32 36 40 47 53
51 56 59 60 58 55 54 53 53 53 50 46 46 49 52 53 53 53 53 52 52 52 51 50 49 50 51 52 54 59 64 66 68 71 72 68 64 60 60 60 60 61 64 67 70 71 70 68 66 67 68 67 66 63 59 56 56 56 50 40 32 27 24 22 21 20 19 19 20 21 23 24 24 23 21 20 19 19 21 25 31 34 36 41 47
56 60 59 58 56 55 54 55 55 53 48 47 50 54 56 56 57 58 57 56 55 54 51 49 48 48 48 51 56 62 67 68 69 71 71 67 64 64 65 63 63 64 66 69 71 71 70 68 68 69 68 66 64 59 54 52 52 49 40 32 26 23 20 20 19 18 18 18 18 19 20 22 24 24 22 20 20 19 19 23 29 32 33 35 40
59 60 59 57 55 55 56 57 56 54 50 51 55 58 59 61 62 62 61 59 57 53 50 48 47 46 47 52 59 65 68 70 70 69 68 67 67 67 67 67 66 65 66 69 71 71 70 70 70 69 67 65 61 56 51 49 46 39 31 26 23 20 19 19 18 17 17 17 17 17 18 19 21 21 21 20 19 18 18 21 25 30 33 32 34
62 60 58 54 51 52 55 57 58 56 54 57 61 64 66 68 68 67 64 61 56 51 48 47 47 47 49 56 64 68 68 69 69 67 67 67 68 68 67 66 65 64 65 67 69 70 70 70 69 67 65 62 57 50 45 41 35 29 25 23 21 19 19 18 18 17 17 16 17 17 17 17 18 18 18 18 17 16 18 19 21 26 30 31 31
63 59 56 52 51 55 59 61 62 60 60 63 69 73 72 71 68 64 59 54 50 47 47 48 49 50 53 59 64 65 65 65 66 65 65 65 66 65 65 64 62 61 63 65 67 68 70 69 67 64 61 56 49 42 36 32 27 24 22 21 19 18 18 17 17 17 17 17 17 17 17 17 16 16 15 15 14 14 15 16 17 20 26 30 30
62 61 60 58 61 65 67 68 68 68 68 71 75 74 69 64 60 55 52 49 46 47 50 53 54 55 57 60 60 60 61 62 63 63 64 64 64 63 64 63 61 59 60 63 65 67 67 65 63 60 56 49 41 35 30 26 23 22 21 19 18 17 17 17 17 18 18 18 17 17 17 16 16 15 15 14 13 13 13 14 15 17 20 26 30
66 70 68 65 67 71 75 77 79 78 77 76 72 64 57 53 51 50 50 50 49 50 53 55 54 54 55 55 54 54 56 57 59 61 62 62 62 63 63 62 59 58 60 62 62 62 60 57 55 54 50 43 35 29 26 24 22 20 19 18 17 17 17 18 18 19 19 19 18 17 17 16 15 15 15 13 12 13 14 14 15 15 17 23 28
68 71 68 66 71 79 84 84 82 79 75 69 60 51 48 49 49 48 49 51 52 52 52 51 49 48 48 48 48 49 51 52 53 56 57 57 58 59 59 58 57 57 56 56 55 53 51 49 49 49 45 37 31 27 25 22 20 19 18 17 17 17 18 18 19 18 18 18 17 16 16 16 16 16 15 14 14 15 16 16 15 15 17 23 27
64 69 71 74 81 86 84 79 74 71 67 60 53 47 46 46 44 43 44 47 48 49 48 47 46 46 46 46 46 47 49 49 49 50 51 52 53 52 50 50 50 50 49 48 48 48 46 45 45 45 40 34 28 24 22 20 19 18 18 18 17 17 17 17 17 17 16 16 16 16 16 16 16 16 16 16 15 15 16 18 17 16 17 23 27
73 79 81 82 82 80 75 71 67 64 59 54 50 45 41 39 38 38 39 40 41 42 43 44 44 44 44 45 46 46 47 48 48 48 49 49 47 43 41 40 41 42 44 46 48 48 46 44 43 41 37 30 24 21 19 19 18 18 17 17 16 16 17 16 16 16 15 15 16 16 15 16 16 16 16 16 16 16 17 18 19 17 16 20 24
83 85 83 78 75 72 68 63 57 52 49 47 44 40 36 35 35 35 34 34 35 36 37 37 38 39 40 41 43 45 46 48 48 48 48 47 44 40 39 39 40 41 43 46 48 48 47 44 42 39 33 26 21 19 19 19 18 17 17 16 16 16 16 16 16 15 15 14 15 15 15 15 15 15 16 16 16 16 17 19 19 18 17 17 19
78 75 70 65 62 61 59 55 51 48 46 44 41 37 35 34 34 32 31 31 31 30 30 31 32 34 36 37 38 40 42 43 44 45 45 44 41 38 38 38 39 39 41 44 46 46 45 43 42 38 30 24 21 20 20 20 18 17 16 16 16 17 17 16 16 15 14 14 14 14 14 15 15 15 15 15 15 15 16 17 18 18 18 16 15
64 60 55 52 51 50 50 48 47 45 42 40 39 38 37 35 34 32 30 30 30 30 29 28 29 32 34 35 35 35 36 36 37 38 39 39 38 36 34 35 35 36 38 40 42 42 42 42 41 37 30 24 21 21 21 20 19 18 17 17 17 17 16 16 16 15 14 14 14 14 14 15 16 16 15 15 15 15 15 15 16 18 19 17 15
50 47 46 45 44 44 43 41 39 37 36 35 36 36 35 34 33 32 30 28 28 28 27 27 27 29 31 33 33 34 34 34 34 36 37 37 35 33 31 32 32 33 34 35 37 38 39 40 40 36 29 24 22 22 22 21 20 19 18 18 17 17 17 16 16 16 15 15 15 15 15 15 16 16 16 15 15 15 15 14 15 17 20 20 17